Time,TemperatureF,DewpointF,PressureIn,WindDirection,WindDirectionDegrees,WindSpeedMPH,WindSpeedGustMPH,Humidity,HourlyPrecipIn,Conditions,Clouds,dailyrainin,SoftwareType,DateUTC
2013-10-04 00:00:00,73.0,70.6,30.21,ENE,68,0.0,0.0,92,0.00,,BKN300,0.00,VWS V14.01,2013-10-04 05:00:00,
2013-10-04 00:04:00,73.0,70.6,30.21,ENE,68,0.0,0.0,92,0.00,,BKN220,0.00,VWS V14.01,2013-10-04 05:04:00,
2013-10-04 00:05:00,73.0,70.6,30.21,ENE,68,0.0,0.0,92,0.00,,BKN220,0.00,VWS V14.01,2013-10-04 05:05:00,
2013-10-04 00:08:00,73.0,70.6,30.21,ENE,68,0.0,0.0,92,0.00,,BKN220,0.00,VWS V14.01,2013-10-04 05:08:00,
2013-10-04 00:09:00,73.0,70.6,30.21,ENE,68,0.0,0.0,92,0.00,,BKN220,0.00,VWS V14.01,2013-10-04 05:09:00,
2013-10-04 00:10:00,73.0,70.6,30.21,ENE,68,0.0,0.0,92,0.00,,BKN220,0.00,VWS V14.01,2013-10-04 05:10:00,
2013-10-04 00:15:00,73.0,70.6,30.21,ENE,68,0.0,0.0,92,0.00,,BKN220,0.00,VWS V14.01,2013-10-04 05:15:00,
2013-10-04 00:17:00,72.9,70.4,30.21,ENE,68,0.0,0.0,92,0.00,,BKN220,0.00,VWS V14.01,2013-10-04 05:17:00,
2013-10-04 00:20:00,72.9,70.4,30.21,ENE,68,0.0,0.0,92,0.00,,BKN220,0.00,VWS V14.01,2013-10-04 05:20:00,
2013-10-04 00:22:00,72.9,70.4,30.18,ENE,68,0.0,0.0,92,0.00,,BKN220,0.00,VWS V14.01,2013-10-04 05:22:00,
2013-10-04 00:25:00,72.9,70.4,30.21,ENE,68,0.0,0.0,92,0.00,,BKN220,0.00,VWS V14.01,2013-10-04 05:25:00,
2013-10-04 00:26:00,72.7,70.2,30.18,ENE,68,0.0,0.0,92,0.00,,BKN220,0.00,VWS V14.01,2013-10-04 05:26:00,
2013-10-04 00:29:00,72.7,70.2,30.18,ENE,68,0.0,0.0,92,0.00,,BKN220,0.00,VWS V14.01,2013-10-04 05:29:00,
2013-10-04 00:30:00,72.9,70.4,30.18,ENE,68,0.0,0.0,92,0.00,,BKN220,0.00,VWS V14.01,2013-10-04 05:30:00,
2013-10-04 00:32:00,72.5,70.1,30.18,ENE,68,0.0,0.0,92,0.00,,BKN220,0.00,VWS V14.01,2013-10-04 05:32:00,
2013-10-04 00:35:00,72.7,70.2,30.18,ENE,68,0.0,0.0,92,0.00,,BKN220,0.00,VWS V14.01,2013-10-04 05:35:00,
2013-10-04 00:37:00,72.5,70.1,30.21,ENE,68,0.0,0.0,92,0.00,,BKN220,0.00,VWS V14.01,2013-10-04 05:37:00,
2013-10-04 00:40:00,72.5,70.1,30.18,ENE,68,0.0,0.0,92,0.00,,BKN220,0.00,VWS V14.01,2013-10-04 05:40:00,
2013-10-04 00:42:00,72.3,69.9,30.21,ENE,68,0.0,0.0,92,0.00,,BKN220,0.00,VWS V14.01,2013-10-04 05:42:00,
2013-10-04 00:45:00,72.5,70.1,30.21,ENE,68,0.0,0.0,92,0.00,,BKN220,0.00,VWS V14.01,2013-10-04 05:45:00,
2013-10-04 00:47:00,72.1,69.7,30.21,ENE,68,0.0,0.0,92,0.00,,BKN220,0.00,VWS V14.01,2013-10-04 05:47:00,
2013-10-04 00:50:00,72.3,69.9,30.21,ENE,68,0.0,0.0,92,0.00,,BKN220,0.00,VWS V14.01,2013-10-04 05:50:00,
2013-10-04 00:52:00,72.1,69.7,30.18,ENE,68,0.0,0.0,92,0.00,,BKN220,0.00,VWS V14.01,2013-10-04 05:52:00,
2013-10-04 00:55:00,72.1,69.7,30.21,ENE,68,0.0,0.0,92,0.00,,BKN220,0.00,VWS V14.01,2013-10-04 05:55:00,
2013-10-04 00:57:00,72.0,69.5,30.18,ENE,68,0.0,0.0,92,0.00,,BKN220,0.00,VWS V14.01,2013-10-04 05:57:00,
2013-10-04 01:00:00,72.1,69.7,30.18,ENE,68,0.0,0.0,92,0.00,,BKN220,0.00,VWS V14.01,2013-10-04 06:00:00,
2013-10-04 01:03:00,72.0,69.5,30.18,ENE,68,0.0,0.0,92,0.00,,BKN220,0.00,VWS V14.01,2013-10-04 06:03:00,
2013-10-04 01:05:00,72.0,69.5,30.18,ENE,68,0.0,0.0,92,0.00,,BKN220,0.00,VWS V14.01,2013-10-04 06:05:00,
2013-10-04 01:08:00,72.0,69.8,30.18,ENE,68,0.0,0.0,93,0.00,,BKN220,0.00,VWS V14.01,2013-10-04 06:08:00,
2013-10-04 01:10:00,72.0,69.5,30.18,ENE,68,0.0,0.0,92,0.00,,BKN220,0.00,VWS V14.01,2013-10-04 06:10:00,
2013-10-04 01:13:00,71.8,69.7,30.18,ENE,68,0.0,0.0,93,0.00,,BKN220,0.00,VWS V14.01,2013-10-04 06:13:00,
2013-10-04 01:15:00,72.0,69.8,30.18,ENE,68,0.0,0.0,93,0.00,,BKN220,0.00,VWS V14.01,2013-10-04 06:15:00,
2013-10-04 01:18:00,71.8,69.7,30.18,ENE,68,0.0,0.0,93,0.00,,BKN220,0.00,VWS V14.01,2013-10-04 06:18:00,
2013-10-04 01:20:00,71.8,69.7,30.18,ENE,68,0.0,0.0,93,0.00,,BKN220,0.00,VWS V14.01,2013-10-04 06:20:00,
2013-10-04 01:23:00,71.6,69.5,30.21,ENE,68,0.0,0.0,93,0.00,,BKN220,0.00,VWS V14.01,2013-10-04 06:23:00,
2013-10-04 01:25:00,71.8,69.7,30.18,ENE,68,0.0,0.0,93,0.00,,BKN220,0.00,VWS V14.01,2013-10-04 06:25:00,
2013-10-04 01:28:00,71.6,69.5,30.21,ENE,68,0.0,0.0,93,0.00,,BKN220,0.00,VWS V14.01,2013-10-04 06:28:00,
2013-10-04 01:30:00,71.6,69.5,30.21,ENE,68,0.0,0.0,93,0.00,,BKN220,0.00,VWS V14.01,2013-10-04 06:30:00,
2013-10-04 01:33:00,71.4,69.3,30.21,ENE,68,0.0,0.0,93,0.00,,BKN220,0.00,VWS V14.01,2013-10-04 06:33:00,
2013-10-04 01:35:00,71.6,69.5,30.21,ENE,68,0.0,0.0,93,0.00,,BKN220,0.00,VWS V14.01,2013-10-04 06:35:00,
2013-10-04 01:38:00,71.4,69.3,30.21,ENE,68,0.0,0.0,93,0.00,,BKN220,0.00,VWS V14.01,2013-10-04 06:38:00,
2013-10-04 01:40:00,71.6,69.5,30.21,ENE,68,0.0,0.0,93,0.00,,BKN220,0.00,VWS V14.01,2013-10-04 06:40:00,
2013-10-04 01:43:00,71.2,69.1,30.21,ENE,68,0.0,0.0,93,0.00,,BKN220,0.00,VWS V14.01,2013-10-04 06:43:00,
2013-10-04 01:45:00,71.4,69.3,30.21,ENE,68,0.0,0.0,93,0.00,,BKN220,0.00,VWS V14.01,2013-10-04 06:45:00,
2013-10-04 01:48:00,71.2,69.1,30.21,ENE,68,0.0,0.0,93,0.00,,BKN220,0.00,VWS V14.01,2013-10-04 06:48:00,
2013-10-04 01:50:00,71.2,69.1,30.21,ENE,68,0.0,0.0,93,0.00,,BKN220,0.00,VWS V14.01,2013-10-04 06:50:00,
2013-10-04 01:53:00,71.1,68.9,30.15,ENE,68,0.0,0.0,93,0.00,,BKN220,0.00,VWS V14.01,2013-10-04 06:53:00,
2013-10-04 01:55:00,71.2,69.1,30.21,ENE,68,0.0,0.0,93,0.00,,BKN220,0.00,VWS V14.01,2013-10-04 06:55:00,
2013-10-04 01:58:00,70.9,68.8,30.15,ENE,68,0.0,0.0,93,0.00,,BKN220,0.00,VWS V14.01,2013-10-04 06:58:00,
2013-10-04 02:00:00,71.1,68.9,30.15,ENE,68,0.0,0.0,93,0.00,,BKN220,0.00,VWS V14.01,2013-10-04 07:00:00,
2013-10-04 02:03:00,70.9,68.8,30.15,ENE,68,0.0,0.0,93,0.00,,BKN220,0.00,VWS V14.01,2013-10-04 07:03:00,
2013-10-04 02:05:00,70.9,68.8,30.15,ENE,68,0.0,0.0,93,0.00,,BKN220,0.00,VWS V14.01,2013-10-04 07:05:00,
2013-10-04 02:08:00,70.9,68.8,30.15,ENE,68,0.0,0.0,93,0.00,,BKN220,0.00,VWS V14.01,2013-10-04 07:08:00,
2013-10-04 02:10:00,70.9,68.8,30.15,ENE,68,0.0,0.0,93,0.00,,BKN220,0.00,VWS V14.01,2013-10-04 07:10:00,
2013-10-04 02:13:00,70.9,69.1,30.15,ENE,68,0.0,0.0,94,0.00,,BKN220,0.00,VWS V14.01,2013-10-04 07:13:00,
2013-10-04 02:15:00,70.9,68.8,30.15,ENE,68,0.0,0.0,93,0.00,,BKN220,0.00,VWS V14.01,2013-10-04 07:15:00,
2013-10-04 02:18:00,70.7,68.9,30.15,ENE,68,0.0,0.0,94,0.00,,BKN220,0.00,VWS V14.01,2013-10-04 07:18:00,
2013-10-04 02:20:00,68.5,66.8,30.15,ENE,68,0.0,0.0,94,0.00,,BKN220,0.00,VWS V14.01,2013-10-04 07:20:00,
2013-10-04 02:23:00,70.7,68.9,30.21,ENE,68,0.0,0.0,94,0.00,,BKN220,0.00,VWS V14.01,2013-10-04 07:23:00,
2013-10-04 02:25:00,70.7,68.9,30.15,ENE,68,0.0,0.0,94,0.00,,BKN220,0.00,VWS V14.01,2013-10-04 07:25:00,
2013-10-04 02:28:00,70.7,68.9,30.21,ENE,68,0.0,0.0,94,0.00,,BKN220,0.00,VWS V14.01,2013-10-04 07:28:00,
2013-10-04 02:30:00,70.7,68.9,30.21,ENE,68,0.0,0.0,94,0.00,,BKN220,0.00,VWS V14.01,2013-10-04 07:30:00,
2013-10-04 02:33:00,70.7,68.9,30.21,ENE,68,0.0,0.0,94,0.00,,BKN220,0.00,VWS V14.01,2013-10-04 07:33:00,
2013-10-04 02:35:00,70.9,69.1,30.21,ENE,68,0.0,0.0,94,0.00,,BKN220,0.00,VWS V14.01,2013-10-04 07:35:00,
2013-10-04 02:38:00,70.7,68.9,30.18,ENE,68,0.0,0.0,94,0.00,,BKN220,0.00,VWS V14.01,2013-10-04 07:38:00,
2013-10-04 02:40:00,70.7,68.9,30.21,ENE,68,0.0,0.0,94,0.00,,BKN220,0.00,VWS V14.01,2013-10-04 07:40:00,
2013-10-04 02:43:00,70.7,68.9,30.18,ENE,68,0.0,0.0,94,0.00,,BKN220,0.00,VWS V14.01,2013-10-04 07:43:00,
2013-10-04 02:45:00,70.7,68.9,30.18,ENE,68,0.0,0.0,94,0.00,,BKN220,0.00,VWS V14.01,2013-10-04 07:45:00,
2013-10-04 02:49:00,70.7,68.9,30.18,ENE,68,0.0,0.0,94,0.00,,BKN220,0.00,VWS V14.01,2013-10-04 07:49:00,
2013-10-04 02:50:00,70.7,68.9,30.18,ENE,68,0.0,0.0,94,0.00,,BKN220,0.00,VWS V14.01,2013-10-04 07:50:00,
2013-10-04 02:54:00,70.7,68.9,30.15,ENE,68,0.0,0.0,94,0.00,,BKN220,0.00,VWS V14.01,2013-10-04 07:54:00,
2013-10-04 02:55:00,70.7,68.9,30.18,ENE,68,0.0,0.0,94,0.00,,BKN220,0.00,VWS V14.01,2013-10-04 07:55:00,
2013-10-04 02:59:00,70.7,68.9,30.15,ENE,68,0.0,0.0,94,0.00,,BKN220,0.00,VWS V14.01,2013-10-04 07:59:00,
2013-10-04 03:00:00,70.7,68.9,30.15,ENE,68,0.0,0.0,94,0.00,,BKN220,0.00,VWS V14.01,2013-10-04 08:00:00,
2013-10-04 03:04:00,70.5,68.7,30.15,ENE,68,0.0,0.0,94,0.00,,BKN220,0.00,VWS V14.01,2013-10-04 08:04:00,
2013-10-04 03:05:00,70.7,68.9,30.15,ENE,68,0.0,0.0,94,0.00,,BKN220,0.00,VWS V14.01,2013-10-04 08:05:00,
2013-10-04 03:09:00,70.5,68.7,30.15,North,0,0.0,0.0,94,0.00,,BKN220,0.00,VWS V14.01,2013-10-04 08:09:00,
2013-10-04 03:10:00,70.5,68.7,30.15,ENE,68,0.0,0.0,94,0.00,,BKN220,0.00,VWS V14.01,2013-10-04 08:10:00,
2013-10-04 03:14:00,70.5,68.7,30.15,NE,45,0.0,0.0,94,0.00,,BKN220,0.00,VWS V14.01,2013-10-04 08:14:00,
2013-10-04 03:15:00,70.5,68.7,30.15,ENE,68,0.0,0.0,94,0.00,,BKN220,0.00,VWS V14.01,2013-10-04 08:15:00,
2013-10-04 03:19:00,70.5,68.7,30.15,NE,45,0.0,0.0,94,0.00,,BKN220,0.00,VWS V14.01,2013-10-04 08:19:00,
2013-10-04 03:20:00,70.5,68.7,30.15,NE,45,0.0,0.0,94,0.00,,BKN220,0.00,VWS V14.01,2013-10-04 08:20:00,
2013-10-04 03:24:00,70.3,68.5,30.18,NE,45,0.0,0.0,94,0.00,,BKN220,0.00,VWS V14.01,2013-10-04 08:24:00,
2013-10-04 03:25:00,70.5,68.7,30.15,NE,45,0.0,0.0,94,0.00,,BKN220,0.00,VWS V14.01,2013-10-04 08:25:00,
2013-10-04 03:29:00,70.3,68.5,30.18,NE,45,0.0,0.0,94,0.00,,BKN220,0.00,VWS V14.01,2013-10-04 08:29:00,
2013-10-04 03:30:00,70.3,68.5,30.18,NE,45,0.0,0.0,94,0.00,,BKN220,0.00,VWS V14.01,2013-10-04 08:30:00,
2013-10-04 03:34:00,70.3,68.5,30.18,WSW,248,0.0,0.0,94,0.00,,BKN220,0.00,VWS V14.01,2013-10-04 08:34:00,
2013-10-04 03:35:00,70.3,68.5,30.18,NE,45,0.0,0.0,94,0.00,,BKN220,0.00,VWS V14.01,2013-10-04 08:35:00,
2013-10-04 03:39:00,70.3,68.5,30.15,WSW,248,0.0,0.0,94,0.00,,BKN220,0.00,VWS V14.01,2013-10-04 08:39:00,
2013-10-04 03:40:00,70.3,68.5,30.18,WSW,248,0.0,0.0,94,0.00,,BKN220,0.00,VWS V14.01,2013-10-04 08:40:00,
2013-10-04 03:44:00,70.2,68.4,30.15,WSW,248,0.0,0.0,94,0.00,,BKN220,0.00,VWS V14.01,2013-10-04 08:44:00,
2013-10-04 03:45:00,70.3,68.5,30.15,WSW,248,0.0,0.0,94,0.00,,BKN220,0.00,VWS V14.01,2013-10-04 08:45:00,
2013-10-04 03:49:00,70.2,68.4,30.15,WSW,248,0.0,0.0,94,0.00,,BKN220,0.00,VWS V14.01,2013-10-04 08:49:00,
2013-10-04 03:50:00,70.2,68.4,30.15,WSW,248,0.0,0.0,94,0.00,,BKN220,0.00,VWS V14.01,2013-10-04 08:50:00,
2013-10-04 03:54:00,70.2,68.4,30.18,ENE,68,0.0,0.0,94,0.00,,BKN220,0.00,VWS V14.01,2013-10-04 08:54:00,
2013-10-04 03:55:00,70.2,68.4,30.15,WSW,248,0.0,0.0,94,0.00,,BKN220,0.00,VWS V14.01,2013-10-04 08:55:00,
2013-10-04 03:59:00,70.2,68.4,30.18,ENE,68,0.0,0.0,94,0.00,,BKN220,0.00,VWS V14.01,2013-10-04 08:59:00,
2013-10-04 04:00:00,70.2,68.4,30.18,WSW,248,0.0,0.0,94,0.00,,BKN220,0.00,VWS V14.01,2013-10-04 09:00:00,
2013-10-04 04:04:00,70.2,68.4,30.18,ENE,68,0.0,0.0,94,0.00,,SCT220,0.00,VWS V14.01,2013-10-04 09:04:00,
2013-10-04 04:05:00,70.7,68.9,30.15,ENE,68,0.0,0.0,94,0.00,,FEW250,0.00,VWS V14.01,2013-10-04 09:05:00,
2013-10-04 04:09:00,70.3,68.5,30.15,ENE,68,0.0,0.0,94,0.00,,SCT220,0.00,VWS V14.01,2013-10-04 09:09:00,
2013-10-04 04:10:00,70.2,68.4,30.18,ENE,68,0.0,0.0,94,0.00,,BKN220,0.00,VWS V14.01,2013-10-04 09:10:00,
2013-10-04 04:14:00,70.3,68.5,30.15,ENE,68,0.0,0.0,94,0.00,,SCT220,0.00,VWS V14.01,2013-10-04 09:14:00,
2013-10-04 04:15:00,70.3,68.5,30.15,ENE,68,0.0,0.0,94,0.00,,BKN220,0.00,VWS V14.01,2013-10-04 09:15:00,
2013-10-04 04:19:00,70.3,68.5,30.15,ENE,68,0.0,0.0,94,0.00,,SCT220,0.00,VWS V14.01,2013-10-04 09:19:00,
2013-10-04 04:20:00,70.3,68.5,30.15,ENE,68,0.0,0.0,94,0.00,,BKN220,0.00,VWS V14.01,2013-10-04 09:20:00,
2013-10-04 04:24:00,70.2,68.4,30.15,ENE,68,0.0,0.0,94,0.00,,SCT220,0.00,VWS V14.01,2013-10-04 09:24:00,
2013-10-04 04:25:00,70.3,68.5,30.15,ENE,68,0.0,0.0,94,0.00,,BKN220,0.00,VWS V14.01,2013-10-04 09:25:00,
2013-10-04 04:29:00,70.2,68.4,30.15,ENE,68,0.0,0.0,94,0.00,,SCT220,0.00,VWS V14.01,2013-10-04 09:29:00,
2013-10-04 04:30:00,70.3,68.5,30.15,ENE,68,0.0,0.0,94,0.00,,BKN220,0.00,VWS V14.01,2013-10-04 09:30:00,
2013-10-04 04:34:00,70.2,68.4,30.15,ENE,68,0.0,0.0,94,0.00,,SCT220,0.00,VWS V14.01,2013-10-04 09:34:00,
2013-10-04 04:35:00,70.2,68.4,30.15,ENE,68,0.0,0.0,94,0.00,,BKN220,0.00,VWS V14.01,2013-10-04 09:35:00,
2013-10-04 04:39:00,70.2,68.4,30.15,ENE,68,0.0,0.0,94,0.00,,SCT220,0.00,VWS V14.01,2013-10-04 09:39:00,
2013-10-04 04:40:00,70.2,68.4,30.15,ENE,68,0.0,0.0,94,0.00,,BKN220,0.00,VWS V14.01,2013-10-04 09:40:00,
2013-10-04 04:44:00,70.2,68.4,30.15,ENE,68,0.0,0.0,94,0.00,,SCT220,0.00,VWS V14.01,2013-10-04 09:44:00,
2013-10-04 04:45:00,70.2,68.4,30.15,ENE,68,0.0,0.0,94,0.00,,BKN220,0.00,VWS V14.01,2013-10-04 09:45:00,
2013-10-04 04:50:00,70.2,68.4,30.18,ENE,68,0.0,0.0,94,0.00,,SCT220,0.00,VWS V14.01,2013-10-04 09:50:00,
2013-10-04 04:55:00,70.2,68.4,30.18,ENE,68,0.0,0.0,94,0.00,,SCT220,0.00,VWS V14.01,2013-10-04 09:55:00,
2013-10-04 05:00:00,70.0,68.2,30.18,ENE,68,0.0,0.0,94,0.00,,SCT220,0.00,VWS V14.01,2013-10-04 10:00:00,
2013-10-04 05:05:00,70.0,68.2,30.21,ENE,68,0.0,0.0,94,0.00,,SCT220,0.00,VWS V14.01,2013-10-04 10:05:00,
2013-10-04 05:10:00,69.8,68.0,30.21,ENE,68,0.0,0.0,94,0.00,,SCT220,0.00,VWS V14.01,2013-10-04 10:10:00,
2013-10-04 05:15:00,69.8,68.0,30.21,ENE,68,0.0,0.0,94,0.00,,SCT220,0.00,VWS V14.01,2013-10-04 10:15:00,
2013-10-04 05:20:00,69.6,67.8,30.18,ENE,68,0.0,0.0,94,0.00,,SCT220,0.00,VWS V14.01,2013-10-04 10:20:00,
2013-10-04 05:25:00,69.6,67.8,30.18,ENE,68,0.0,0.0,94,0.00,,SCT220,0.00,VWS V14.01,2013-10-04 10:25:00,
2013-10-04 05:30:00,69.6,67.8,30.18,ENE,68,0.0,0.0,94,0.00,,SCT220,0.00,VWS V14.01,2013-10-04 10:30:00,
2013-10-04 05:35:00,69.4,67.6,30.21,ENE,68,0.0,0.0,94,0.00,,SCT220,0.00,VWS V14.01,2013-10-04 10:35:00,
2013-10-04 05:40:00,69.4,67.6,30.21,ENE,68,0.0,0.0,94,0.00,,SCT220,0.00,VWS V14.01,2013-10-04 10:40:00,
2013-10-04 05:45:00,69.3,67.5,30.21,ENE,68,0.0,0.0,94,0.00,,SCT220,0.00,VWS V14.01,2013-10-04 10:45:00,
2013-10-04 05:50:00,69.3,67.5,30.21,ENE,68,0.0,0.0,94,0.00,,SCT220,0.00,VWS V14.01,2013-10-04 10:50:00,
2013-10-04 05:55:00,69.1,67.3,30.21,ENE,68,0.0,0.0,94,0.00,,SCT220,0.00,VWS V14.01,2013-10-04 10:55:00,
2013-10-04 06:00:00,69.1,67.3,30.21,ENE,68,0.0,0.0,94,0.00,,SCT220,0.00,VWS V14.01,2013-10-04 11:00:00,
2013-10-04 06:05:00,69.1,67.3,30.21,ENE,68,0.0,0.0,94,0.00,,SCT220,0.00,VWS V14.01,2013-10-04 11:05:00,
2013-10-04 06:10:00,68.9,67.1,30.21,ENE,68,0.0,0.0,94,0.00,,SCT220,0.00,VWS V14.01,2013-10-04 11:10:00,
2013-10-04 06:15:00,68.9,67.1,30.21,ENE,68,0.0,0.0,94,0.00,,SCT220,0.00,VWS V14.01,2013-10-04 11:15:00,
2013-10-04 06:20:00,68.9,67.1,30.21,ENE,68,0.0,0.0,94,0.00,,SCT220,0.00,VWS V14.01,2013-10-04 11:20:00,
2013-10-04 06:25:00,68.9,67.1,30.21,ENE,68,0.0,0.0,94,0.00,,BKN220,0.00,VWS V14.01,2013-10-04 11:25:00,
2013-10-04 06:26:00,68.9,67.1,30.21,ENE,68,0.0,0.0,94,0.00,,SCT220,0.00,VWS V14.01,2013-10-04 11:26:00,
2013-10-04 06:30:00,68.9,67.1,30.21,ENE,68,0.0,0.0,94,0.00,,BKN220,0.00,VWS V14.01,2013-10-04 11:30:00,
2013-10-04 06:31:00,68.9,67.1,30.21,ENE,68,0.0,0.0,94,0.00,,SCT220,0.00,VWS V14.01,2013-10-04 11:31:00,
2013-10-04 06:35:00,68.9,67.1,30.21,ENE,68,0.0,0.0,94,0.00,,BKN220,0.00,VWS V14.01,2013-10-04 11:35:00,
2013-10-04 06:36:00,68.7,66.9,30.21,ENE,68,0.0,0.0,94,0.00,,SCT220,0.00,VWS V14.01,2013-10-04 11:36:00,
2013-10-04 06:40:00,68.9,67.1,30.21,ENE,68,0.0,0.0,94,0.00,,BKN220,0.00,VWS V14.01,2013-10-04 11:40:00,
2013-10-04 06:41:00,68.7,66.9,30.21,ENE,68,0.0,0.0,94,0.00,,SCT220,0.00,VWS V14.01,2013-10-04 11:41:00,
2013-10-04 06:45:00,68.7,66.9,30.21,ENE,68,0.0,0.0,94,0.00,,BKN220,0.00,VWS V14.01,2013-10-04 11:45:00,
2013-10-04 06:46:00,68.7,66.9,30.21,ENE,68,0.0,0.0,94,0.00,,SCT220,0.00,VWS V14.01,2013-10-04 11:46:00,
2013-10-04 06:50:00,68.7,66.9,30.21,ENE,68,0.0,0.0,94,0.00,,BKN220,0.00,VWS V14.01,2013-10-04 11:50:00,
2013-10-04 06:51:00,68.7,66.9,30.21,ENE,68,0.0,0.0,94,0.00,,SCT220,0.00,VWS V14.01,2013-10-04 11:51:00,
2013-10-04 06:55:00,68.7,66.9,30.21,ENE,68,0.0,0.0,94,0.00,,BKN220,0.00,VWS V14.01,2013-10-04 11:55:00,
2013-10-04 06:56:00,68.7,66.9,30.21,ENE,68,0.0,0.0,94,0.00,,SCT220,0.00,VWS V14.01,2013-10-04 11:56:00,
2013-10-04 07:00:00,68.7,66.9,30.21,ENE,68,0.0,0.0,94,0.00,,BKN220,0.00,VWS V14.01,2013-10-04 12:00:00,
2013-10-04 07:01:00,68.7,66.9,30.21,ENE,68,0.0,0.0,94,0.00,,SCT220,0.00,VWS V14.01,2013-10-04 12:01:00,
2013-10-04 07:05:00,68.7,66.9,30.21,ENE,68,0.0,0.0,94,0.00,,BKN220,0.00,VWS V14.01,2013-10-04 12:05:00,
2013-10-04 07:06:00,68.9,67.1,30.21,ENE,68,0.0,0.0,94,0.00,,SCT220,0.00,VWS V14.01,2013-10-04 12:06:00,
2013-10-04 07:10:00,68.7,66.9,30.21,ENE,68,0.0,0.0,94,0.00,,BKN220,0.00,VWS V14.01,2013-10-04 12:10:00,
2013-10-04 07:11:00,68.9,67.1,30.21,NNE,22,0.0,0.0,94,0.00,,SCT220,0.00,VWS V14.01,2013-10-04 12:11:00,
2013-10-04 07:15:00,68.9,67.1,30.21,ENE,68,0.0,0.0,94,0.00,,BKN220,0.00,VWS V14.01,2013-10-04 12:15:00,
2013-10-04 07:16:00,69.3,67.5,30.21,NNE,22,0.0,0.0,94,0.00,,SCT220,0.00,VWS V14.01,2013-10-04 12:16:00,
2013-10-04 07:20:00,69.1,67.3,30.21,NNE,22,0.0,0.0,94,0.00,,BKN220,0.00,VWS V14.01,2013-10-04 12:20:00,
2013-10-04 07:21:00,69.4,67.6,30.21,NE,45,0.0,0.0,94,0.00,,SCT220,0.00,VWS V14.01,2013-10-04 12:21:00,
2013-10-04 07:25:00,69.3,67.5,30.21,NE,45,0.0,0.0,94,0.00,,BKN220,0.00,VWS V14.01,2013-10-04 12:25:00,
2013-10-04 07:26:00,69.6,67.8,30.21,NE,45,0.0,0.0,94,0.00,,SCT220,0.00,VWS V14.01,2013-10-04 12:26:00,
2013-10-04 07:30:00,69.4,67.6,30.21,NE,45,0.0,0.0,94,0.00,,BKN220,0.00,VWS V14.01,2013-10-04 12:30:00,
2013-10-04 07:31:00,70.0,68.2,30.21,NNE,22,0.0,0.0,94,0.00,,SCT220,0.00,VWS V14.01,2013-10-04 12:31:00,
2013-10-04 07:35:00,69.8,68.0,30.21,NE,45,0.0,0.0,94,0.00,,BKN220,0.00,VWS V14.01,2013-10-04 12:35:00,
2013-10-04 07:36:00,70.3,68.5,30.21,NE,45,0.0,0.0,94,0.00,,SCT220,0.00,VWS V14.01,2013-10-04 12:36:00,
2013-10-04 07:40:00,70.2,68.4,30.21,West,270,0.0,0.0,94,0.00,,BKN220,0.00,VWS V14.01,2013-10-04 12:40:00,
2013-10-04 07:41:00,70.9,69.1,30.21,East,90,0.0,0.0,94,0.00,,SCT220,0.00,VWS V14.01,2013-10-04 12:41:00,
2013-10-04 07:45:00,70.5,68.7,30.21,NE,45,0.0,0.0,94,0.00,,BKN220,0.00,VWS V14.01,2013-10-04 12:45:00,
2013-10-04 07:46:00,71.1,69.2,30.21,ENE,68,0.0,0.0,94,0.00,,SCT220,0.00,VWS V14.01,2013-10-04 12:46:00,
2013-10-04 07:50:00,70.9,69.1,30.21,East,90,0.0,0.0,94,0.00,,BKN220,0.00,VWS V14.01,2013-10-04 12:50:00,
2013-10-04 07:51:00,71.4,69.3,30.24,NE,45,0.0,0.0,93,0.00,,SCT220,0.00,VWS V14.01,2013-10-04 12:51:00,
2013-10-04 07:55:00,71.2,69.1,30.21,ENE,68,0.0,0.0,93,0.00,,BKN220,0.00,VWS V14.01,2013-10-04 12:55:00,
2013-10-04 07:56:00,71.8,69.3,30.24,NNE,22,0.0,0.0,92,0.00,,SCT220,0.00,VWS V14.01,2013-10-04 12:56:00,
2013-10-04 08:00:00,71.6,69.5,30.24,NNW,338,0.0,0.0,93,0.00,,BKN220,0.00,VWS V14.01,2013-10-04 13:00:00,
2013-10-04 08:01:00,72.1,69.7,30.24,NNE,22,1.3,1.6,92,0.00,,SCT220,0.00,VWS V14.01,2013-10-04 13:01:00,
2013-10-04 08:05:00,68.7,66.9,30.21,ENE,68,0.0,0.0,94,0.00,,FEW250,0.00,VWS V14.01,2013-10-04 13:05:00,
2013-10-04 08:07:00,72.3,69.6,30.24,NE,45,0.0,0.0,91,0.00,,SCT220,0.00,VWS V14.01,2013-10-04 13:07:00,
2013-10-04 08:10:00,72.1,69.7,30.24,ENE,68,0.0,1.6,92,0.00,,BKN220,0.00,VWS V14.01,2013-10-04 13:10:00,
2013-10-04 08:12:00,72.7,69.9,30.24,NNW,338,0.0,0.9,91,0.00,,SCT220,0.00,VWS V14.01,2013-10-04 13:12:00,
2013-10-04 08:15:00,72.5,69.7,30.24,NE,45,0.9,1.1,91,0.00,,BKN220,0.00,VWS V14.01,2013-10-04 13:15:00,
2013-10-04 08:17:00,73.0,70.3,30.24,ENE,68,0.0,1.6,91,0.00,,SCT220,0.00,VWS V14.01,2013-10-04 13:17:00,
2013-10-04 08:20:00,72.9,70.1,30.24,NNW,338,0.0,0.9,91,0.00,,BKN220,0.00,VWS V14.01,2013-10-04 13:20:00,
2013-10-04 08:22:00,73.4,70.3,30.21,SSE,158,0.0,0.0,90,0.00,,SCT220,0.00,VWS V14.01,2013-10-04 13:22:00,
2013-10-04 08:25:00,73.0,70.3,30.24,ENE,68,0.0,1.6,91,0.00,,BKN220,0.00,VWS V14.01,2013-10-04 13:25:00,
2013-10-04 08:27:00,73.8,70.7,30.21,ENE,68,0.0,2.2,90,0.00,,SCT220,0.00,VWS V14.01,2013-10-04 13:27:00,
2013-10-04 08:30:00,73.4,70.3,30.21,SSE,158,0.0,0.0,90,0.00,,BKN220,0.00,VWS V14.01,2013-10-04 13:30:00,
2013-10-04 08:32:00,74.1,70.7,30.21,ENE,68,0.0,1.1,89,0.00,,SCT220,0.00,VWS V14.01,2013-10-04 13:32:00,
2013-10-04 08:35:00,73.8,70.3,30.21,ENE,68,0.0,2.2,89,0.00,,BKN220,0.00,VWS V14.01,2013-10-04 13:35:00,
2013-10-04 08:37:00,74.3,70.8,30.24,ENE,68,0.0,0.0,89,0.00,,SCT220,0.00,VWS V14.01,2013-10-04 13:37:00,
2013-10-04 08:40:00,74.1,70.7,30.21,ENE,68,0.0,1.1,89,0.00,,BKN220,0.00,VWS V14.01,2013-10-04 13:40:00,
2013-10-04 08:42:00,74.7,70.9,30.24,NE,45,0.0,2.0,88,0.00,,SCT220,0.00,VWS V14.01,2013-10-04 13:42:00,
2013-10-04 08:45:00,74.3,70.8,30.24,NNW,338,2.0,2.0,89,0.00,,BKN220,0.00,VWS V14.01,2013-10-04 13:45:00,
2013-10-04 08:47:00,75.0,71.2,30.24,NE,45,0.0,2.0,88,0.00,,SCT220,0.00,VWS V14.01,2013-10-04 13:47:00,
2013-10-04 08:50:00,74.7,70.9,30.24,NE,45,0.0,2.0,88,0.00,,BKN220,0.00,VWS V14.01,2013-10-04 13:50:00,
2013-10-04 08:52:00,75.4,71.2,30.24,East,90,0.0,2.2,87,0.00,,SCT220,0.00,VWS V14.01,2013-10-04 13:52:00,
2013-10-04 08:55:00,75.0,71.2,30.24,NE,45,0.0,2.0,88,0.00,,BKN220,0.00,VWS V14.01,2013-10-04 13:55:00,
2013-10-04 08:57:00,75.7,71.3,30.24,East,90,0.0,2.2,86,0.00,,SCT220,0.00,VWS V14.01,2013-10-04 13:57:00,
2013-10-04 09:00:00,75.4,71.2,30.24,East,90,0.0,2.2,87,0.00,,BKN220,0.00,VWS V14.01,2013-10-04 14:00:00,
2013-10-04 09:02:00,76.1,71.6,30.24,NE,45,0.9,2.5,86,0.00,,SCT220,0.00,VWS V14.01,2013-10-04 14:02:00,
2013-10-04 09:05:00,75.7,71.3,30.24,East,90,0.0,2.2,86,0.00,,BKN220,0.00,VWS V14.01,2013-10-04 14:05:00,
2013-10-04 09:07:00,76.5,71.6,30.21,NE,45,0.0,1.3,85,0.00,,SCT220,0.00,VWS V14.01,2013-10-04 14:07:00,
2013-10-04 09:10:00,76.1,71.6,30.24,NNW,338,0.0,2.5,86,0.00,,BKN220,0.00,VWS V14.01,2013-10-04 14:10:00,
2013-10-04 09:12:00,76.8,72.0,30.21,ENE,68,0.0,1.6,85,0.00,,SCT220,0.00,VWS V14.01,2013-10-04 14:12:00,
2013-10-04 09:15:00,76.5,71.6,30.21,NE,45,0.0,1.3,85,0.00,,BKN220,0.00,VWS V14.01,2013-10-04 14:15:00,
2013-10-04 09:17:00,77.2,72.0,30.21,ENE,68,0.0,2.2,84,0.00,,SCT220,0.00,VWS V14.01,2013-10-04 14:17:00,
2013-10-04 09:20:00,76.8,71.6,30.21,ENE,68,0.0,1.6,84,0.00,,BKN220,0.00,VWS V14.01,2013-10-04 14:20:00,
2013-10-04 09:22:00,77.7,72.2,30.24,NNE,22,0.0,2.0,83,0.00,,SCT220,0.00,VWS V14.01,2013-10-04 14:22:00,
2013-10-04 09:25:00,77.2,72.0,30.21,ENE,68,1.3,2.2,84,0.00,,BKN220,0.00,VWS V14.01,2013-10-04 14:25:00,
2013-10-04 09:27:00,78.4,72.8,30.24,NNE,22,0.0,1.6,83,0.00,,SCT220,0.00,VWS V14.01,2013-10-04 14:27:00,
2013-10-04 09:30:00,77.7,72.2,30.24,NNE,22,0.0,2.0,83,0.00,,BKN220,0.00,VWS V14.01,2013-10-04 14:30:00,
2013-10-04 09:32:00,79.2,73.2,30.24,ENE,68,1.1,1.3,82,0.00,,SCT220,0.00,VWS V14.01,2013-10-04 14:32:00,
2013-10-04 09:35:00,78.4,72.8,30.24,NNE,22,0.0,1.6,83,0.00,,BKN220,0.00,VWS V14.01,2013-10-04 14:35:00,
2013-10-04 09:37:00,80.8,74.0,30.21,ENE,68,0.0,2.0,80,0.00,,SCT220,0.00,VWS V14.01,2013-10-04 14:37:00,
2013-10-04 09:40:00,79.2,73.2,30.24,ENE,68,1.1,1.3,82,0.00,,BKN220,0.00,VWS V14.01,2013-10-04 14:40:00,
2013-10-04 09:42:00,81.9,74.7,30.21,NNW,338,2.0,2.0,79,0.00,,SCT220,0.00,VWS V14.01,2013-10-04 14:42:00,
2013-10-04 09:45:00,80.8,74.0,30.21,ENE,68,0.0,2.0,80,0.00,,BKN220,0.00,VWS V14.01,2013-10-04 14:45:00,
2013-10-04 09:47:00,82.8,74.4,30.21,NE,45,1.1,1.1,76,0.00,,SCT220,0.00,VWS V14.01,2013-10-04 14:47:00,
2013-10-04 09:50:00,81.9,74.7,30.21,NNW,338,2.0,2.0,79,0.00,,BKN220,0.00,VWS V14.01,2013-10-04 14:50:00,
2013-10-04 09:52:00,83.5,74.7,30.24,NE,45,0.9,1.1,75,0.00,,SCT220,0.00,VWS V14.01,2013-10-04 14:52:00,
2013-10-04 09:55:00,82.8,74.4,30.21,NE,45,1.1,2.0,76,0.00,,BKN220,0.00,VWS V14.01,2013-10-04 14:55:00,
2013-10-04 09:58:00,83.7,74.1,30.24,ENE,68,1.1,1.1,73,0.00,,SCT220,0.00,VWS V14.01,2013-10-04 14:58:00,
2013-10-04 10:00:00,83.5,74.7,30.24,NE,45,0.9,1.1,75,0.00,,BKN220,0.00,VWS V14.01,2013-10-04 15:00:00,
2013-10-04 10:03:00,83.7,72.8,30.24,NNE,22,0.0,0.0,70,0.00,,SCT220,0.00,VWS V14.01,2013-10-04 15:03:00,
2013-10-04 10:05:00,83.7,74.1,30.24,ENE,68,1.1,1.1,73,0.00,,BKN220,0.00,VWS V14.01,2013-10-04 15:05:00,
2013-10-04 10:08:00,83.7,72.4,30.24,ENE,68,0.0,0.0,69,0.00,,SCT220,0.00,VWS V14.01,2013-10-04 15:08:00,
2013-10-04 10:10:00,83.5,73.1,30.24,ENE,68,0.0,1.6,71,0.00,,BKN220,0.00,VWS V14.01,2013-10-04 15:10:00,
2013-10-04 10:13:00,83.8,73.0,30.24,ENE,68,1.3,1.3,70,0.00,,SCT220,0.00,VWS V14.01,2013-10-04 15:13:00,
2013-10-04 10:15:00,83.7,72.4,30.24,ENE,68,0.0,2.2,69,0.00,,BKN220,0.00,VWS V14.01,2013-10-04 15:15:00,
2013-10-04 10:18:00,84.0,72.8,30.24,NE,45,0.0,0.0,69,0.00,,SCT220,0.00,VWS V14.01,2013-10-04 15:18:00,
2013-10-04 10:20:00,83.8,73.0,30.24,ENE,68,0.0,2.2,70,0.00,,BKN220,0.00,VWS V14.01,2013-10-04 15:20:00,
2013-10-04 10:23:00,84.2,72.5,30.27,NE,45,0.0,0.0,68,0.00,,SCT220,0.00,VWS V14.01,2013-10-04 15:23:00,
2013-10-04 10:25:00,83.8,72.2,30.24,NE,45,0.0,1.6,68,0.00,,BKN220,0.00,VWS V14.01,2013-10-04 15:25:00,
2013-10-04 10:26:00,84.4,72.7,30.27,East,90,1.1,1.3,68,0.00,,SCT220,0.00,VWS V14.01,2013-10-04 15:26:00,
2013-10-04 10:30:00,84.2,72.5,30.27,NE,45,0.0,0.0,68,0.00,,BKN220,0.00,VWS V14.01,2013-10-04 15:30:00,
2013-10-04 10:31:00,84.6,72.4,30.27,South,180,0.0,1.6,67,0.00,,SCT220,0.00,VWS V14.01,2013-10-04 15:31:00,
2013-10-04 10:35:00,84.4,72.2,30.27,East,90,0.0,1.3,67,0.00,,BKN220,0.00,VWS V14.01,2013-10-04 15:35:00,
2013-10-04 10:36:00,84.7,71.7,30.24,SSW,202,1.3,2.2,65,0.00,,SCT220,0.00,VWS V14.01,2013-10-04 15:36:00,
2013-10-04 10:40:00,84.7,72.1,30.27,South,180,0.0,1.6,66,0.00,,BKN220,0.00,VWS V14.01,2013-10-04 15:40:00,
2013-10-04 10:41:00,84.7,71.2,30.24,ENE,68,0.0,2.7,64,0.00,,SCT220,0.00,VWS V14.01,2013-10-04 15:41:00,
2013-10-04 10:45:00,84.7,71.7,30.24,SSW,202,0.0,2.2,65,0.00,,BKN220,0.00,VWS V14.01,2013-10-04 15:45:00,
2013-10-04 10:46:00,84.9,71.4,30.24,ENE,68,0.0,2.5,64,0.00,,SCT220,0.00,VWS V14.01,2013-10-04 15:46:00,
2013-10-04 10:50:00,84.9,71.4,30.24,ENE,68,0.9,2.7,64,0.00,,BKN220,0.00,VWS V14.01,2013-10-04 15:50:00,
2013-10-04 10:52:00,85.1,71.1,30.21,NNE,22,1.6,2.2,63,0.00,,SCT220,0.00,VWS V14.01,2013-10-04 15:52:00,
2013-10-04 10:55:00,84.9,71.4,30.24,ENE,68,1.1,2.5,64,0.00,,BKN220,0.00,VWS V14.01,2013-10-04 15:55:00,
2013-10-04 10:57:00,85.3,70.8,30.21,South,180,1.1,3.1,62,0.00,,SCT220,0.00,VWS V14.01,2013-10-04 15:57:00,
2013-10-04 11:00:00,85.3,71.3,30.21,ENE,68,0.0,2.2,63,0.00,,BKN220,0.00,VWS V14.01,2013-10-04 16:00:00,
2013-10-04 11:02:00,85.8,71.8,30.21,ENE,68,1.6,2.2,63,0.00,,SCT220,0.00,VWS V14.01,2013-10-04 16:02:00,
2013-10-04 11:05:00,85.5,71.4,30.21,South,180,1.1,3.1,63,0.00,,BKN220,0.00,VWS V14.01,2013-10-04 16:05:00,
2013-10-04 11:07:00,85.8,70.8,30.21,ESE,112,0.0,2.9,61,0.00,,SCT220,0.00,VWS V14.01,2013-10-04 16:07:00,
2013-10-04 11:10:00,85.8,71.8,30.21,ENE,68,0.0,2.2,63,0.00,,BKN220,0.00,VWS V14.01,2013-10-04 16:10:00,
2013-10-04 11:12:00,86.2,70.7,30.21,NE,45,2.5,2.7,60,0.00,,SCT220,0.00,VWS V14.01,2013-10-04 16:12:00,
2013-10-04 11:15:00,85.8,70.8,30.21,ESE,112,0.0,2.9,61,0.00,,BKN220,0.00,VWS V14.01,2013-10-04 16:15:00,
2013-10-04 11:17:00,86.5,71.5,30.21,ENE,68,1.1,1.1,61,0.00,,SCT220,0.00,VWS V14.01,2013-10-04 16:17:00,
2013-10-04 11:20:00,86.2,70.7,30.21,ENE,68,1.1,2.7,60,0.00,,BKN220,0.00,VWS V14.01,2013-10-04 16:20:00,
2013-10-04 11:22:00,87.1,71.5,30.18,East,90,1.3,1.6,60,0.00,,SCT220,0.00,VWS V14.01,2013-10-04 16:22:00,
2013-10-04 11:25:00,86.5,71.5,30.21,ENE,68,0.9,1.1,61,0.00,,BKN220,0.00,VWS V14.01,2013-10-04 16:25:00,
2013-10-04 11:28:00,87.1,71.5,30.18,East,90,0.0,0.0,60,0.00,,SCT220,0.00,VWS V14.01,2013-10-04 16:28:00,
2013-10-04 11:30:00,87.1,71.5,30.18,East,90,1.3,1.6,60,0.00,,BKN220,0.00,VWS V14.01,2013-10-04 16:30:00,
2013-10-04 11:33:00,86.0,70.5,30.18,East,90,0.0,0.0,60,0.00,,SCT220,0.00,VWS V14.01,2013-10-04 16:33:00,
2013-10-04 11:35:00,87.1,71.5,30.18,East,90,0.0,2.2,60,0.00,,BKN220,0.00,VWS V14.01,2013-10-04 16:35:00,
2013-10-04 11:38:00,85.5,69.5,30.21,ENE,68,0.0,0.0,59,0.00,,SCT220,0.00,VWS V14.01,2013-10-04 16:38:00,
2013-10-04 11:40:00,86.2,70.2,30.18,East,90,0.0,1.3,59,0.00,,BKN220,0.00,VWS V14.01,2013-10-04 16:40:00,
2013-10-04 11:43:00,85.6,70.2,30.21,ENE,68,0.0,0.0,60,0.00,,SCT220,0.00,VWS V14.01,2013-10-04 16:43:00,
2013-10-04 11:45:00,85.5,69.5,30.21,ENE,68,0.0,1.6,59,0.00,,BKN220,0.00,VWS V14.01,2013-10-04 16:45:00,
2013-10-04 11:48:00,86.4,71.3,30.21,ENE,68,0.0,0.0,61,0.00,,SCT220,0.00,VWS V14.01,2013-10-04 16:48:00,
2013-10-04 11:50:00,85.6,70.2,30.21,ENE,68,0.0,0.9,60,0.00,,BKN220,0.00,VWS V14.01,2013-10-04 16:50:00,
2013-10-04 11:53:00,87.3,71.7,30.21,South,180,0.0,0.9,60,0.00,,SCT220,0.00,VWS V14.01,2013-10-04 16:53:00,
2013-10-04 11:55:00,86.2,70.7,30.21,ENE,68,0.0,0.0,60,0.00,,BKN220,0.00,VWS V14.01,2013-10-04 16:55:00,
2013-10-04 11:58:00,87.3,70.2,30.21,South,180,0.0,0.0,57,0.00,,SCT220,0.00,VWS V14.01,2013-10-04 16:58:00,
2013-10-04 12:00:00,87.3,71.7,30.21,South,180,0.0,1.3,60,0.00,,BKN220,0.00,VWS V14.01,2013-10-04 17:00:00,
2013-10-04 12:03:00,86.2,69.2,30.21,South,180,0.0,0.0,57,0.00,,SCT100,0.00,VWS V14.01,2013-10-04 17:03:00,
2013-10-04 12:05:00,85.5,71.4,30.21,South,180,1.1,3.1,63,0.00,,FEW250,0.00,VWS V14.01,2013-10-04 17:05:00,
2013-10-04 12:08:00,86.2,69.2,30.21,NE,45,0.0,0.0,57,0.00,,SCT100,0.00,VWS V14.01,2013-10-04 17:08:00,
2013-10-04 12:10:00,86.4,68.8,30.21,South,180,0.0,0.9,56,0.00,,BKN220,0.00,VWS V14.01,2013-10-04 17:10:00,
2013-10-04 12:13:00,86.4,69.3,30.21,NE,45,0.0,0.0,57,0.00,,SCT100,0.00,VWS V14.01,2013-10-04 17:13:00,
2013-10-04 12:15:00,85.8,70.8,30.21,ESE,112,0.0,2.9,61,0.00,,FEW250,0.00,VWS V14.01,2013-10-04 17:15:00,
2013-10-04 12:18:00,86.7,69.7,30.21,SSW,202,0.0,0.0,57,0.00,,SCT100,0.00,VWS V14.01,2013-10-04 17:18:00,
2013-10-04 12:20:00,86.2,69.2,30.21,NE,45,0.0,1.6,57,0.00,,BKN220,0.00,VWS V14.01,2013-10-04 17:20:00,
2013-10-04 12:23:00,87.1,70.0,30.21,SSW,202,0.0,1.1,57,0.00,,SCT100,0.00,VWS V14.01,2013-10-04 17:23:00,
2013-10-04 12:25:00,86.5,71.5,30.21,ENE,68,0.9,1.1,61,0.00,,FEW250,0.00,VWS V14.01,2013-10-04 17:25:00,
2013-10-04 12:28:00,87.1,70.0,30.21,ENE,68,0.0,0.0,57,0.00,,SCT100,0.00,VWS V14.01,2013-10-04 17:28:00,
2013-10-04 12:30:00,87.1,70.0,30.21,WSW,248,1.1,1.1,57,0.00,,BKN220,0.00,VWS V14.01,2013-10-04 17:30:00,
2013-10-04 12:33:00,87.3,68.6,30.21,East,90,1.3,1.6,54,0.00,,SCT100,0.00,VWS V14.01,2013-10-04 17:33:00,
2013-10-04 12:35:00,87.1,70.0,30.21,ENE,68,0.0,1.6,57,0.00,,BKN220,0.00,VWS V14.01,2013-10-04 17:35:00,
2013-10-04 12:40:00,87.3,69.7,30.21,East,90,1.6,1.6,56,0.00,,BKN220,0.00,VWS V14.01,2013-10-04 17:40:00,
2013-10-04 12:45:00,87.6,68.9,30.21,East,90,1.6,2.2,54,0.00,,BKN220,0.00,VWS V14.01,2013-10-04 17:45:00,
2013-10-04 12:50:00,88.2,69.4,30.21,East,90,0.0,1.6,54,0.00,,BKN220,0.00,VWS V14.01,2013-10-04 17:50:00,
2013-10-04 12:55:00,87.8,68.6,30.21,SSW,202,0.9,2.0,53,0.00,,BKN220,0.00,VWS V14.01,2013-10-04 17:55:00,
2013-10-04 12:58:00,88.7,69.4,30.21,SSE,158,0.9,1.6,53,0.00,,SCT100,0.00,VWS V14.01,2013-10-04 17:58:00,
2013-10-04 13:00:00,88.2,69.4,30.21,SSE,158,0.0,2.0,54,0.00,,BKN220,0.00,VWS V14.01,2013-10-04 18:00:00,
2013-10-04 13:03:00,88.9,69.6,30.21,ENE,68,0.0,1.1,53,0.00,,SCT100,0.00,VWS V14.01,2013-10-04 18:03:00,
2013-10-04 13:05:00,88.7,69.9,30.21,SSE,158,1.1,2.0,54,0.00,,BKN220,0.00,VWS V14.01,2013-10-04 18:05:00,
2013-10-04 13:08:00,88.9,69.6,30.21,ENE,68,0.0,0.9,53,0.00,,SCT100,0.00,VWS V14.01,2013-10-04 18:08:00,
2013-10-04 13:10:00,88.9,69.6,30.21,ENE,68,0.0,1.6,53,0.00,,BKN220,0.00,VWS V14.01,2013-10-04 18:10:00,
2013-10-04 13:14:00,88.3,67.9,30.21,ESE,112,0.0,2.2,51,0.00,,SCT100,0.00,VWS V14.01,2013-10-04 18:14:00,
2013-10-04 13:15:00,88.9,69.0,30.21,ENE,68,0.9,2.2,52,0.00,,BKN220,0.00,VWS V14.01,2013-10-04 18:15:00,
2013-10-04 13:19:00,88.7,70.5,30.21,ESE,112,1.1,1.1,55,0.00,,SCT100,0.00,VWS V14.01,2013-10-04 18:19:00,
2013-10-04 13:20:00,88.7,69.4,30.21,ESE,112,1.1,1.6,53,0.00,,BKN220,0.00,VWS V14.01,2013-10-04 18:20:00,
2013-10-04 13:24:00,89.1,70.8,30.18,SSE,158,1.6,1.6,55,0.00,,SCT100,0.00,VWS V14.01,2013-10-04 18:24:00,
2013-10-04 13:25:00,88.7,69.9,30.21,ESE,112,1.1,2.2,54,0.00,,BKN220,0.00,VWS V14.01,2013-10-04 18:25:00,
2013-10-04 13:29:00,88.7,70.5,30.18,SSE,158,0.0,1.3,55,0.00,,SCT100,0.00,VWS V14.01,2013-10-04 18:29:00,
2013-10-04 13:30:00,88.9,70.6,30.18,SSE,158,0.0,1.6,55,0.00,,BKN220,0.00,VWS V14.01,2013-10-04 18:30:00,
2013-10-04 13:34:00,88.3,70.1,30.18,SSE,158,0.0,1.6,55,0.00,,SCT100,0.00,VWS V14.01,2013-10-04 18:34:00,
2013-10-04 13:35:00,88.9,70.6,30.18,SSE,158,1.3,1.6,55,0.00,,BKN220,0.00,VWS V14.01,2013-10-04 18:35:00,
2013-10-04 13:39:00,88.0,69.8,30.21,SSW,202,1.1,1.6,55,0.00,,SCT100,0.00,VWS V14.01,2013-10-04 18:39:00,
2013-10-04 13:40:00,88.5,70.3,30.18,SSE,158,1.6,2.5,55,0.00,,BKN220,0.00,VWS V14.01,2013-10-04 18:40:00,
2013-10-04 13:44:00,88.0,70.3,30.21,South,180,0.0,0.9,56,0.00,,SCT100,0.00,VWS V14.01,2013-10-04 18:44:00,
2013-10-04 13:45:00,88.0,69.8,30.21,SSW,202,0.9,2.5,55,0.00,,BKN220,0.00,VWS V14.01,2013-10-04 18:45:00,
2013-10-04 13:49:00,87.8,70.2,30.21,South,180,1.3,1.6,56,0.00,,SCT100,0.00,VWS V14.01,2013-10-04 18:49:00,
2013-10-04 13:50:00,88.0,70.3,30.21,South,180,0.0,1.6,56,0.00,,BKN220,0.00,VWS V14.01,2013-10-04 18:50:00,
2013-10-04 13:54:00,88.0,71.4,30.18,WSW,248,1.6,1.6,58,0.00,,SCT100,0.00,VWS V14.01,2013-10-04 18:54:00,
2013-10-04 13:55:00,87.8,70.2,30.21,South,180,0.9,1.3,56,0.00,,BKN220,0.00,VWS V14.01,2013-10-04 18:55:00,
2013-10-04 13:59:00,87.6,70.5,30.18,SSW,202,0.0,1.6,57,0.00,,SCT100,0.00,VWS V14.01,2013-10-04 18:59:00,
2013-10-04 14:00:00,88.0,71.4,30.18,WSW,248,1.6,1.6,58,0.00,,BKN220,0.00,VWS V14.01,2013-10-04 19:00:00,
2013-10-04 14:04:00,87.3,69.7,30.15,SSW,202,1.3,1.3,56,0.00,,SCT100,0.00,VWS V14.01,2013-10-04 19:04:00,
2013-10-04 14:05:00,87.8,70.7,30.18,SSW,202,0.0,2.2,57,0.00,,BKN220,0.00,VWS V14.01,2013-10-04 19:05:00,
2013-10-04 14:10:00,87.1,70.0,30.15,SSW,202,0.0,2.0,57,0.00,,SCT100,0.00,VWS V14.01,2013-10-04 19:10:00,
2013-10-04 14:15:00,87.3,70.7,30.15,SSW,202,0.0,0.9,58,0.00,,SCT100,0.00,VWS V14.01,2013-10-04 19:15:00,
2013-10-04 14:20:00,87.6,71.0,30.18,SSW,202,1.6,1.6,58,0.00,,SCT100,0.00,VWS V14.01,2013-10-04 19:20:00,
2013-10-04 14:25:00,87.1,70.5,30.18,SSW,202,0.0,1.1,58,0.00,,SCT100,0.00,VWS V14.01,2013-10-04 19:25:00,
2013-10-04 14:30:00,87.4,71.4,30.18,SSW,202,1.1,1.6,59,0.00,,SCT100,0.00,VWS V14.01,2013-10-04 19:30:00,
2013-10-04 14:35:00,87.6,71.0,30.21,SSW,202,1.6,1.6,58,0.00,,SCT100,0.00,VWS V14.01,2013-10-04 19:35:00,
2013-10-04 14:40:00,87.6,71.0,30.21,South,180,0.9,1.1,58,0.00,,SCT100,0.00,VWS V14.01,2013-10-04 19:40:00,
2013-10-04 14:45:00,87.8,71.2,30.21,South,180,0.0,1.3,58,0.00,,SCT100,0.00,VWS V14.01,2013-10-04 19:45:00,
2013-10-04 14:50:00,88.9,72.2,30.15,SE,135,0.0,1.1,58,0.00,,SCT100,0.00,VWS V14.01,2013-10-04 19:50:00,
2013-10-04 14:55:00,89.1,71.3,30.15,SSW,202,1.1,2.0,56,0.00,,SCT100,0.00,VWS V14.01,2013-10-04 19:55:00,
2013-10-04 15:00:00,89.6,72.4,30.15,SSW,202,1.1,2.2,57,0.00,,SCT100,0.00,VWS V14.01,2013-10-04 20:00:00,
2013-10-04 15:05:00,89.4,72.2,30.18,SSE,158,1.3,2.7,57,0.00,,SCT100,0.00,VWS V14.01,2013-10-04 20:05:00,
2013-10-04 15:10:00,89.4,72.2,30.18,SSE,158,1.3,2.2,57,0.00,,SCT100,0.00,VWS V14.01,2013-10-04 20:10:00,
2013-10-04 15:15:00,89.4,72.7,30.18,SSE,158,1.1,1.3,58,0.00,,SCT100,0.00,VWS V14.01,2013-10-04 20:15:00,
2013-10-04 15:20:00,90.7,73.4,30.15,SSE,158,0.0,0.0,57,0.00,,SCT100,0.00,VWS V14.01,2013-10-04 20:20:00,
2013-10-04 15:25:00,91.6,74.2,30.15,SSE,158,1.1,1.3,57,0.00,,SCT100,0.00,VWS V14.01,2013-10-04 20:25:00,
2013-10-04 15:30:00,91.2,73.9,30.15,SSW,202,1.3,2.2,57,0.00,,SCT100,0.00,VWS V14.01,2013-10-04 20:30:00,
2013-10-04 15:35:00,91.2,73.9,30.18,SSW,202,0.0,0.9,57,0.00,,SCT100,0.00,VWS V14.01,2013-10-04 20:35:00,
2013-10-04 15:40:00,91.2,73.3,30.18,SSW,202,0.0,0.9,56,0.00,,SCT100,0.00,VWS V14.01,2013-10-04 20:40:00,
2013-10-04 15:45:00,91.4,74.0,30.18,SSW,202,0.0,0.9,57,0.00,,BKN220,0.00,VWS V14.01,2013-10-04 20:45:00,
2013-10-04 15:46:00,89.2,72.0,30.18,SSW,202,1.3,1.6,57,0.00,,SCT100,0.00,VWS V14.01,2013-10-04 20:46:00,
2013-10-04 15:50:00,90.3,72.5,30.18,WNW,292,1.1,1.1,56,0.00,,BKN220,0.00,VWS V14.01,2013-10-04 20:50:00,
2013-10-04 15:51:00,88.2,71.0,30.15,SSW,202,0.0,2.0,57,0.00,,SCT100,0.00,VWS V14.01,2013-10-04 20:51:00,
2013-10-04 15:55:00,88.7,71.0,30.18,SSW,202,0.9,1.6,56,0.00,,BKN220,0.00,VWS V14.01,2013-10-04 20:55:00,
2013-10-04 15:56:00,87.6,71.5,30.15,SSW,202,0.0,0.9,59,0.00,,SCT100,0.00,VWS V14.01,2013-10-04 20:56:00,
2013-10-04 16:00:00,87.8,70.7,30.15,SSW,202,0.0,2.0,57,0.00,,BKN220,0.00,VWS V14.01,2013-10-04 21:00:00,
2013-10-04 16:01:00,87.1,71.5,30.15,SSW,202,0.0,1.1,60,0.00,,BKN220,0.00,VWS V14.01,2013-10-04 21:01:00,
2013-10-04 16:05:00,87.3,71.7,30.15,SSW,202,1.1,1.3,60,0.00,,BKN220,0.00,VWS V14.01,2013-10-04 21:05:00,
2013-10-04 16:06:00,86.7,71.7,30.15,SSW,202,0.0,1.6,61,0.00,,BKN220,0.00,VWS V14.01,2013-10-04 21:06:00,
2013-10-04 16:10:00,86.9,71.8,30.15,SSW,202,0.0,1.1,61,0.00,,BKN220,0.00,VWS V14.01,2013-10-04 21:10:00,
2013-10-04 16:11:00,86.2,71.2,30.15,SSW,202,0.0,0.9,61,0.00,,BKN220,0.00,VWS V14.01,2013-10-04 21:11:00,
2013-10-04 16:15:00,86.5,71.5,30.15,SSW,202,0.0,1.6,61,0.00,,BKN220,0.00,VWS V14.01,2013-10-04 21:15:00,
2013-10-04 16:16:00,85.6,71.6,30.15,South,180,0.0,2.0,63,0.00,,BKN220,0.00,VWS V14.01,2013-10-04 21:16:00,
2013-10-04 16:20:00,89.4,72.7,30.18,SSE,158,1.3,2.2,58,0.00,,FEW250,0.00,VWS V14.01,2013-10-04 21:20:00,
2013-10-04 16:21:00,85.6,72.1,30.15,South,180,0.0,1.3,64,0.00,,BKN220,0.00,VWS V14.01,2013-10-04 21:21:00,
2013-10-04 16:25:00,85.6,71.6,30.15,South,180,0.0,2.0,63,0.00,,BKN220,0.00,VWS V14.01,2013-10-04 21:25:00,
2013-10-04 16:26:00,85.5,72.8,30.15,South,180,1.3,2.2,66,0.00,,BKN220,0.00,VWS V14.01,2013-10-04 21:26:00,
2013-10-04 16:30:00,85.5,72.4,30.15,South,180,0.0,1.6,65,0.00,,BKN220,0.00,VWS V14.01,2013-10-04 21:30:00,
2013-10-04 16:31:00,85.3,72.6,30.15,South,180,0.0,1.6,66,0.00,,BKN220,0.00,VWS V14.01,2013-10-04 21:31:00,
2013-10-04 16:35:00,85.3,72.6,30.15,South,180,0.0,2.2,66,0.00,,BKN220,0.00,VWS V14.01,2013-10-04 21:35:00,
2013-10-04 16:36:00,84.9,72.8,30.18,South,180,0.0,2.2,67,0.00,,BKN220,0.00,VWS V14.01,2013-10-04 21:36:00,
2013-10-04 16:40:00,85.1,72.5,30.15,South,180,0.9,1.6,66,0.00,,BKN220,0.00,VWS V14.01,2013-10-04 21:40:00,
2013-10-04 16:41:00,84.7,73.0,30.18,South,180,0.0,0.0,68,0.00,,BKN220,0.00,VWS V14.01,2013-10-04 21:41:00,
2013-10-04 16:45:00,84.9,72.8,30.18,South,180,0.0,2.2,67,0.00,,BKN220,0.00,VWS V14.01,2013-10-04 21:45:00,
2013-10-04 16:46:00,84.4,72.7,30.18,South,180,0.0,2.0,68,0.00,,BKN220,0.00,VWS V14.01,2013-10-04 21:46:00,
2013-10-04 16:50:00,84.6,72.8,30.18,South,180,2.0,2.0,68,0.00,,BKN220,0.00,VWS V14.01,2013-10-04 21:50:00,
2013-10-04 16:51:00,84.2,73.4,30.15,SSE,158,0.0,1.6,70,0.00,,BKN220,0.00,VWS V14.01,2013-10-04 21:51:00,
2013-10-04 16:55:00,84.4,72.7,30.18,South,180,0.0,2.0,68,0.00,,BKN220,0.00,VWS V14.01,2013-10-04 21:55:00,
2013-10-04 16:56:00,83.8,73.4,30.15,SSE,158,0.0,1.3,71,0.00,,BKN220,0.00,VWS V14.01,2013-10-04 21:56:00,
2013-10-04 17:00:00,84.2,73.4,30.15,SSE,158,0.0,1.6,70,0.00,,BKN220,0.00,VWS V14.01,2013-10-04 22:00:00,
2013-10-04 17:01:00,83.7,73.3,30.15,NNW,338,0.0,2.0,71,0.00,,BKN220,0.00,VWS V14.01,2013-10-04 22:01:00,
2013-10-04 17:05:00,83.8,73.4,30.15,SSE,158,0.0,1.3,71,0.00,,BKN220,0.00,VWS V14.01,2013-10-04 22:05:00,
2013-10-04 17:06:00,83.5,73.5,30.15,East,90,0.0,1.3,72,0.00,,BKN220,0.00,VWS V14.01,2013-10-04 22:06:00,
2013-10-04 17:10:00,83.7,73.7,30.15,NE,45,0.0,2.0,72,0.00,,BKN220,0.00,VWS V14.01,2013-10-04 22:10:00,
2013-10-04 17:11:00,83.1,73.6,30.15,East,90,0.0,1.1,73,0.00,,BKN220,0.00,VWS V14.01,2013-10-04 22:11:00,
2013-10-04 17:15:00,83.3,73.3,30.15,East,90,0.9,1.3,72,0.00,,BKN220,0.00,VWS V14.01,2013-10-04 22:15:00,
2013-10-04 17:16:00,83.1,74.0,30.15,West,270,1.6,2.2,74,0.00,,BKN220,0.00,VWS V14.01,2013-10-04 22:16:00,
2013-10-04 17:20:00,83.1,73.6,30.15,East,90,0.0,1.1,73,0.00,,BKN220,0.00,VWS V14.01,2013-10-04 22:20:00,
2013-10-04 17:21:00,82.9,73.8,30.18,SSW,202,0.0,1.3,74,0.00,,BKN220,0.00,VWS V14.01,2013-10-04 22:21:00,
2013-10-04 17:25:00,82.9,73.8,30.15,SSW,202,0.0,2.2,74,0.00,,BKN220,0.00,VWS V14.01,2013-10-04 22:25:00,
2013-10-04 17:26:00,82.9,74.2,30.18,ENE,68,0.0,0.0,75,0.00,,BKN220,0.00,VWS V14.01,2013-10-04 22:26:00,
2013-10-04 17:30:00,82.9,73.8,30.18,ENE,68,0.0,1.3,74,0.00,,BKN220,0.00,VWS V14.01,2013-10-04 22:30:00,
2013-10-04 17:31:00,82.8,74.4,30.18,SSW,202,0.0,1.1,76,0.00,,BKN220,0.00,VWS V14.01,2013-10-04 22:31:00,
2013-10-04 17:35:00,82.9,74.2,30.18,NE,45,0.0,1.3,75,0.00,,BKN220,0.00,VWS V14.01,2013-10-04 22:35:00,
2013-10-04 17:37:00,82.6,74.2,30.18,ESE,112,0.0,1.6,76,0.00,,BKN220,0.00,VWS V14.01,2013-10-04 22:37:00,
2013-10-04 17:40:00,82.8,74.4,30.18,SW,225,0.0,1.1,76,0.00,,BKN220,0.00,VWS V14.01,2013-10-04 22:40:00,
2013-10-04 17:42:00,82.6,74.2,30.18,ESE,112,0.0,1.1,76,0.00,,BKN220,0.00,VWS V14.01,2013-10-04 22:42:00,
2013-10-04 17:45:00,82.6,74.2,30.18,ESE,112,0.0,1.6,76,0.00,,BKN220,0.00,VWS V14.01,2013-10-04 22:45:00,
2013-10-04 17:47:00,82.4,74.1,30.18,ESE,112,0.0,1.1,76,0.00,,BKN220,0.00,VWS V14.01,2013-10-04 22:47:00,
2013-10-04 17:50:00,82.6,74.2,30.18,ESE,112,1.1,1.1,76,0.00,,BKN220,0.00,VWS V14.01,2013-10-04 22:50:00,
2013-10-04 17:52:00,82.4,74.1,30.18,ESE,112,0.0,1.1,76,0.00,,BKN220,0.00,VWS V14.01,2013-10-04 22:52:00,
2013-10-04 17:55:00,82.4,74.1,30.18,ESE,112,0.0,1.1,76,0.00,,BKN220,0.00,VWS V14.01,2013-10-04 22:55:00,
2013-10-04 17:57:00,82.2,74.3,30.18,ENE,68,0.0,2.2,77,0.00,,BKN220,0.00,VWS V14.01,2013-10-04 22:57:00,
2013-10-04 18:00:00,82.2,74.3,30.18,ESE,112,0.0,1.1,77,0.00,,BKN220,0.00,VWS V14.01,2013-10-04 23:00:00,
2013-10-04 18:02:00,82.0,74.1,30.18,ENE,68,0.0,0.0,77,0.00,,BKN220,0.00,VWS V14.01,2013-10-04 23:02:00,
2013-10-04 18:05:00,82.0,74.1,30.18,ENE,68,0.0,2.2,77,0.00,,BKN220,0.00,VWS V14.01,2013-10-04 23:05:00,
2013-10-04 18:07:00,82.0,74.1,30.18,South,180,0.0,0.0,77,0.00,,BKN220,0.00,VWS V14.01,2013-10-04 23:07:00,
2013-10-04 18:10:00,82.0,74.1,30.18,ENE,68,0.0,0.0,77,0.00,,BKN220,0.00,VWS V14.01,2013-10-04 23:10:00,
2013-10-04 18:12:00,81.9,73.9,30.18,NE,45,0.0,1.3,77,0.00,,BKN220,0.00,VWS V14.01,2013-10-04 23:12:00,
2013-10-04 18:15:00,82.0,74.1,30.18,South,180,0.0,0.0,77,0.00,,BKN220,0.00,VWS V14.01,2013-10-04 23:15:00,
2013-10-04 18:17:00,81.7,74.2,30.18,SW,225,0.0,0.0,78,0.00,,BKN220,0.00,VWS V14.01,2013-10-04 23:17:00,
2013-10-04 18:20:00,81.9,74.3,30.18,NE,45,0.0,1.3,78,0.00,,BKN220,0.00,VWS V14.01,2013-10-04 23:20:00,
2013-10-04 18:22:00,81.3,73.8,30.18,WNW,292,0.0,0.0,78,0.00,,BKN220,0.00,VWS V14.01,2013-10-04 23:22:00,
2013-10-04 18:25:00,81.7,74.2,30.18,SW,225,0.0,0.0,78,0.00,,BKN220,0.00,VWS V14.01,2013-10-04 23:25:00,
2013-10-04 18:27:00,81.1,73.6,30.18,SSW,202,0.0,0.0,78,0.00,,BKN220,0.00,VWS V14.01,2013-10-04 23:27:00,
2013-10-04 18:30:00,81.3,73.8,30.18,West,270,0.0,0.0,78,0.00,,BKN220,0.00,VWS V14.01,2013-10-04 23:30:00,
2013-10-04 18:32:00,81.0,73.5,30.18,SSW,202,0.0,0.0,78,0.00,,BKN220,0.00,VWS V14.01,2013-10-04 23:32:00,
2013-10-04 18:35:00,81.1,73.6,30.18,SSW,202,0.0,0.0,78,0.00,,BKN220,0.00,VWS V14.01,2013-10-04 23:35:00,
2013-10-04 18:37:00,80.8,73.7,30.21,SSW,202,0.0,0.0,79,0.00,,BKN220,0.00,VWS V14.01,2013-10-04 23:37:00,
2013-10-04 18:40:00,81.0,73.5,30.18,SSW,202,0.0,0.0,78,0.00,,BKN220,0.00,VWS V14.01,2013-10-04 23:40:00,
2013-10-04 18:42:00,80.6,73.5,30.21,SSW,202,0.0,0.0,79,0.00,,BKN220,0.00,VWS V14.01,2013-10-04 23:42:00,
2013-10-04 18:45:00,80.8,73.7,30.21,SSW,202,0.0,0.0,79,0.00,,BKN220,0.00,VWS V14.01,2013-10-04 23:45:00,
2013-10-04 18:47:00,80.4,73.3,30.21,SSW,202,0.0,0.0,79,0.00,,BKN220,0.00,VWS V14.01,2013-10-04 23:47:00,
2013-10-04 18:50:00,80.6,73.5,30.21,SSW,202,0.0,0.0,79,0.00,,BKN220,0.00,VWS V14.01,2013-10-04 23:50:00,
2013-10-04 18:52:00,80.2,73.5,30.21,WNW,292,0.0,0.0,80,0.00,,BKN220,0.00,VWS V14.01,2013-10-04 23:52:00,
2013-10-04 18:55:00,80.4,73.3,30.21,SSW,202,0.0,0.0,79,0.00,,BKN220,0.00,VWS V14.01,2013-10-04 23:55:00,
2013-10-04 18:57:00,80.2,73.9,30.21,SSW,202,0.0,0.0,81,0.00,,BKN220,0.00,VWS V14.01,2013-10-04 23:57:00,
2013-10-04 19:00:00,80.2,73.5,30.21,WNW,292,0.0,0.0,80,0.00,,BKN220,0.00,VWS V14.01,2013-10-05 00:00:00,
2013-10-04 19:02:00,80.1,73.7,30.21,SSW,202,0.0,0.0,81,0.00,,BKN220,0.00,VWS V14.01,2013-10-05 00:02:00,
2013-10-04 19:05:00,80.2,73.9,30.21,SSW,202,0.0,0.0,81,0.00,,BKN220,0.00,VWS V14.01,2013-10-05 00:05:00,
2013-10-04 19:07:00,79.9,73.9,30.21,SSW,202,0.0,0.0,82,0.00,,BKN220,0.00,VWS V14.01,2013-10-05 00:07:00,
2013-10-04 19:10:00,80.1,73.7,30.21,SSW,202,0.0,0.0,81,0.00,,BKN220,0.00,VWS V14.01,2013-10-05 00:10:00,
2013-10-04 19:12:00,79.9,73.9,30.21,SSW,202,0.0,0.0,82,0.00,,BKN220,0.00,VWS V14.01,2013-10-05 00:12:00,
2013-10-04 19:15:00,79.9,73.9,30.21,SSW,202,0.0,0.0,82,0.00,,BKN220,0.00,VWS V14.01,2013-10-05 00:15:00,
2013-10-04 19:17:00,79.7,74.1,30.21,SSW,202,0.0,0.0,83,0.00,,BKN220,0.00,VWS V14.01,2013-10-05 00:17:00,
2013-10-04 19:20:00,79.9,73.9,30.21,SSW,202,0.0,0.0,82,0.00,,BKN220,0.00,VWS V14.01,2013-10-05 00:20:00,
2013-10-04 19:22:00,79.5,73.9,30.21,SSW,202,0.0,0.0,83,0.00,,BKN220,0.00,VWS V14.01,2013-10-05 00:22:00,
2013-10-04 19:25:00,79.7,74.1,30.21,SSW,202,0.0,0.0,83,0.00,,BKN220,0.00,VWS V14.01,2013-10-05 00:25:00,
2013-10-04 19:28:00,79.5,74.3,30.21,SSW,202,0.0,0.0,84,0.00,,BKN220,0.00,VWS V14.01,2013-10-05 00:28:00,
2013-10-04 19:30:00,79.5,73.9,30.21,SSW,202,0.0,0.0,83,0.00,,BKN220,0.00,VWS V14.01,2013-10-05 00:30:00,
2013-10-04 19:33:00,79.2,73.9,30.21,SSW,202,0.0,0.0,84,0.00,,BKN220,0.00,VWS V14.01,2013-10-05 00:33:00,
2013-10-04 19:35:00,79.5,74.3,30.21,SSW,202,0.0,0.0,84,0.00,,BKN220,0.00,VWS V14.01,2013-10-05 00:35:00,
2013-10-04 19:38:00,79.2,74.3,30.21,SSW,202,0.0,0.0,85,0.00,,BKN220,0.00,VWS V14.01,2013-10-05 00:38:00,
2013-10-04 19:40:00,79.2,73.9,30.21,SSW,202,0.0,0.0,84,0.00,,BKN220,0.00,VWS V14.01,2013-10-05 00:40:00,
2013-10-04 19:43:00,79.0,74.1,30.21,SSW,202,0.0,0.0,85,0.00,,BKN220,0.00,VWS V14.01,2013-10-05 00:43:00,
2013-10-04 19:45:00,79.2,74.3,30.21,SSW,202,0.0,0.0,85,0.00,,BKN220,0.00,VWS V14.01,2013-10-05 00:45:00,
2013-10-04 19:48:00,78.8,74.3,30.21,SSW,202,0.0,0.0,86,0.00,,BKN220,0.00,VWS V14.01,2013-10-05 00:48:00,
2013-10-04 19:50:00,79.0,74.1,30.21,SSW,202,0.0,0.0,85,0.00,,BKN220,0.00,VWS V14.01,2013-10-05 00:50:00,
2013-10-04 19:53:00,78.6,74.1,30.21,SSW,202,0.0,0.0,86,0.00,,BKN220,0.00,VWS V14.01,2013-10-05 00:53:00,
2013-10-04 19:55:00,78.8,74.3,30.21,SSW,202,0.0,0.0,86,0.00,,BKN220,0.00,VWS V14.01,2013-10-05 00:55:00,
2013-10-04 19:58:00,78.4,74.2,30.21,SSW,202,0.0,0.0,87,0.00,,BKN220,0.00,VWS V14.01,2013-10-05 00:58:00,
2013-10-04 20:00:00,78.6,74.1,30.21,SSW,202,0.0,0.0,86,0.00,,BKN220,0.00,VWS V14.01,2013-10-05 01:00:00,
2013-10-04 20:03:00,78.3,74.1,30.21,SSW,202,0.0,0.0,87,0.00,,BKN250,0.00,VWS V14.01,2013-10-05 01:03:00,
2013-10-04 20:05:00,78.4,74.2,30.21,SSW,202,0.0,0.0,87,0.00,,BKN220,0.00,VWS V14.01,2013-10-05 01:05:00,
2013-10-04 20:08:00,78.3,74.1,30.21,SSW,202,0.0,0.0,87,0.00,,BKN250,0.00,VWS V14.01,2013-10-05 01:08:00,
2013-10-04 20:10:00,78.4,74.2,30.21,SSW,202,0.0,0.0,87,0.00,,BKN220,0.00,VWS V14.01,2013-10-05 01:10:00,
2013-10-04 20:13:00,78.1,74.2,30.21,SSW,202,0.0,0.0,88,0.00,,BKN250,0.00,VWS V14.01,2013-10-05 01:13:00,
2013-10-04 20:15:00,78.3,74.1,30.21,SSW,202,0.0,0.0,87,0.00,,BKN220,0.00,VWS V14.01,2013-10-05 01:15:00,
2013-10-04 20:18:00,78.1,74.2,30.21,SSW,202,0.0,0.0,88,0.00,,BKN250,0.00,VWS V14.01,2013-10-05 01:18:00,
2013-10-04 20:20:00,78.1,74.2,30.21,SSW,202,0.0,0.0,88,0.00,,BKN220,0.00,VWS V14.01,2013-10-05 01:20:00,
2013-10-04 20:23:00,77.9,74.1,30.21,SSW,202,0.0,0.0,88,0.00,,BKN250,0.00,VWS V14.01,2013-10-05 01:23:00,
2013-10-04 20:25:00,78.1,74.2,30.21,SSW,202,0.0,0.0,88,0.00,,BKN220,0.00,VWS V14.01,2013-10-05 01:25:00,
2013-10-04 20:28:00,77.9,74.1,30.21,SSW,202,0.0,0.0,88,0.00,,BKN250,0.00,VWS V14.01,2013-10-05 01:28:00,
2013-10-04 20:30:00,77.9,74.1,30.21,SSW,202,0.0,0.0,88,0.00,,BKN220,0.00,VWS V14.01,2013-10-05 01:30:00,
2013-10-04 20:33:00,77.7,74.2,30.21,SSW,202,0.0,0.0,89,0.00,,BKN250,0.00,VWS V14.01,2013-10-05 01:33:00,
2013-10-04 20:35:00,77.9,74.1,30.21,SSW,202,0.0,0.0,88,0.00,,BKN220,0.00,VWS V14.01,2013-10-05 01:35:00,
2013-10-04 20:38:00,77.5,74.1,30.24,SSW,202,0.0,0.0,89,0.00,,BKN250,0.00,VWS V14.01,2013-10-05 01:38:00,
2013-10-04 20:40:00,77.7,73.9,30.21,SSW,202,0.0,0.0,88,0.00,,BKN220,0.00,VWS V14.01,2013-10-05 01:40:00,
2013-10-04 20:43:00,77.4,73.9,30.24,SSW,202,0.0,0.0,89,0.00,,BKN250,0.00,VWS V14.01,2013-10-05 01:43:00,
2013-10-04 20:45:00,77.5,73.7,30.24,SSW,202,0.0,0.0,88,0.00,,BKN220,0.00,VWS V14.01,2013-10-05 01:45:00,
2013-10-04 20:48:00,77.4,73.9,30.24,SSW,202,0.0,0.0,89,0.00,,BKN250,0.00,VWS V14.01,2013-10-05 01:48:00,
2013-10-04 20:50:00,77.4,73.9,30.24,SSW,202,0.0,0.0,89,0.00,,BKN220,0.00,VWS V14.01,2013-10-05 01:50:00,
2013-10-04 20:53:00,77.2,73.7,30.21,SSW,202,0.0,0.0,89,0.00,,BKN250,0.00,VWS V14.01,2013-10-05 01:53:00,
2013-10-04 20:55:00,77.4,73.5,30.24,SSW,202,0.0,0.0,88,0.00,,BKN220,0.00,VWS V14.01,2013-10-05 01:55:00,
2013-10-04 21:00:00,77.2,73.7,30.21,SSW,202,0.0,0.0,89,0.00,,BKN220,0.00,VWS V14.01,2013-10-05 02:00:00,
2013-10-04 21:05:00,77.2,73.7,30.21,SSW,202,0.0,0.0,89,0.00,,BKN220,0.00,VWS V14.01,2013-10-05 02:05:00,
2013-10-04 21:06:00,77.0,73.5,30.21,SSW,202,0.0,0.0,89,0.00,,BKN220,0.00,VWS V14.01,2013-10-05 02:06:00,
2013-10-04 21:07:00,77.0,73.5,30.21,SSW,202,0.0,0.0,89,0.00,,BKN220,0.00,VWS V14.01,2013-10-05 02:07:00,
2013-10-04 21:08:00,77.0,73.5,30.21,SSW,202,0.0,0.0,89,0.00,,BKN220,0.00,VWS V14.01,2013-10-05 02:08:00,
2013-10-04 21:09:00,77.0,73.5,30.21,SSW,202,0.0,0.0,89,0.00,,BKN220,0.00,VWS V14.01,2013-10-05 02:09:00,
2013-10-04 21:10:00,77.0,73.5,30.21,SSW,202,0.0,0.0,89,0.00,,BKN250,0.00,VWS V14.01,2013-10-05 02:10:00,
2013-10-04 21:11:00,77.0,73.5,30.21,SSW,202,0.0,0.0,89,0.00,,BKN220,0.00,VWS V14.01,2013-10-05 02:11:00,
2013-10-04 21:12:00,77.0,73.5,30.21,SSW,202,0.0,0.0,89,0.00,,BKN220,0.00,VWS V14.01,2013-10-05 02:12:00,
2013-10-04 21:13:00,77.0,73.5,30.21,SSW,202,0.0,0.0,89,0.00,,BKN220,0.00,VWS V14.01,2013-10-05 02:13:00,
2013-10-04 21:14:00,77.0,73.5,30.21,SSW,202,0.0,0.0,89,0.00,,BKN220,0.00,VWS V14.01,2013-10-05 02:14:00,
2013-10-04 21:15:00,76.6,73.5,30.21,SSW,202,0.0,0.0,90,0.00,,BKN250,0.00,VWS V14.01,2013-10-05 02:15:00,
2013-10-04 21:20:00,76.6,73.5,30.24,SSW,202,0.0,0.0,90,0.00,,BKN250,0.00,VWS V14.01,2013-10-05 02:20:00,
2013-10-04 21:25:00,76.5,73.3,30.24,SSW,202,0.0,0.0,90,0.00,,BKN250,0.00,VWS V14.01,2013-10-05 02:25:00,
2013-10-04 21:30:00,76.5,73.3,30.24,SSW,202,0.0,0.0,90,0.00,,BKN250,0.00,VWS V14.01,2013-10-05 02:30:00,
2013-10-04 21:35:00,76.3,73.1,30.24,SSW,202,0.0,0.0,90,0.00,,BKN250,0.00,VWS V14.01,2013-10-05 02:35:00,
2013-10-04 21:40:00,76.3,73.1,30.24,SSW,202,0.0,0.0,90,0.00,,BKN250,0.00,VWS V14.01,2013-10-05 02:40:00,
2013-10-04 21:45:00,76.1,73.0,30.24,SSW,202,0.0,0.0,90,0.00,,BKN250,0.00,VWS V14.01,2013-10-05 02:45:00,
2013-10-04 21:50:00,76.1,73.0,30.24,SSW,202,0.0,0.0,90,0.00,,BKN220,0.00,VWS V14.01,2013-10-05 02:50:00,
2013-10-04 21:51:00,76.1,73.3,30.24,SSW,202,0.0,0.0,91,0.00,,BKN250,0.00,VWS V14.01,2013-10-05 02:51:00,
2013-10-04 21:55:00,76.1,73.0,30.24,SSW,202,0.0,0.0,90,0.00,,BKN220,0.00,VWS V14.01,2013-10-05 02:55:00,
2013-10-04 21:56:00,75.9,73.1,30.24,SSW,202,0.0,0.0,91,0.00,,BKN250,0.00,VWS V14.01,2013-10-05 02:56:00,
2013-10-04 22:00:00,75.9,73.1,30.24,SSW,202,0.0,0.0,91,0.00,,BKN220,0.00,VWS V14.01,2013-10-05 03:00:00,
2013-10-04 22:01:00,75.9,73.1,30.24,SSW,202,0.0,0.0,91,0.00,,BKN250,0.00,VWS V14.01,2013-10-05 03:01:00,
2013-10-04 22:05:00,75.9,73.1,30.24,SSW,202,0.0,0.0,91,0.00,,BKN220,0.00,VWS V14.01,2013-10-05 03:05:00,
2013-10-04 22:06:00,75.9,73.1,30.24,SSW,202,0.0,0.0,91,0.00,,BKN250,0.00,VWS V14.01,2013-10-05 03:06:00,
2013-10-04 22:07:00,77.0,73.5,30.21,SSW,202,0.0,0.0,89,0.00,,FEW250,0.00,VWS V14.01,2013-10-05 03:07:00,
2013-10-04 22:08:00,77.0,73.5,30.21,SSW,202,0.0,0.0,89,0.00,,FEW250,0.00,VWS V14.01,2013-10-05 03:08:00,
2013-10-04 22:09:00,77.0,73.5,30.21,SSW,202,0.0,0.0,89,0.00,,FEW250,0.00,VWS V14.01,2013-10-05 03:09:00,
2013-10-04 22:10:00,75.9,73.1,30.24,SSW,202,0.0,0.0,91,0.00,,BKN220,0.00,VWS V14.01,2013-10-05 03:10:00,
2013-10-04 22:11:00,75.9,73.1,30.24,SSW,202,0.0,0.0,91,0.00,,BKN250,0.00,VWS V14.01,2013-10-05 03:11:00,
2013-10-04 22:12:00,77.0,73.5,30.21,SSW,202,0.0,0.0,89,0.00,,FEW250,0.00,VWS V14.01,2013-10-05 03:12:00,
2013-10-04 22:13:00,77.0,73.5,30.21,SSW,202,0.0,0.0,89,0.00,,FEW250,0.00,VWS V14.01,2013-10-05 03:13:00,
2013-10-04 22:14:00,77.0,73.5,30.21,SSW,202,0.0,0.0,89,0.00,,FEW250,0.00,VWS V14.01,2013-10-05 03:14:00,
2013-10-04 22:15:00,75.9,73.1,30.24,SSW,202,0.0,0.0,91,0.00,,BKN220,0.00,VWS V14.01,2013-10-05 03:15:00,
2013-10-04 22:16:00,75.9,73.1,30.24,SSW,202,0.0,0.0,91,0.00,,BKN250,0.00,VWS V14.01,2013-10-05 03:16:00,
2013-10-04 22:20:00,75.9,73.1,30.24,SSW,202,0.0,0.0,91,0.00,,BKN220,0.00,VWS V14.01,2013-10-05 03:20:00,
2013-10-04 22:21:00,75.7,72.9,30.21,SSW,202,0.0,0.0,91,0.00,,BKN250,0.00,VWS V14.01,2013-10-05 03:21:00,
2013-10-04 22:25:00,75.7,72.9,30.24,SSW,202,0.0,0.0,91,0.00,,BKN220,0.00,VWS V14.01,2013-10-05 03:25:00,
2013-10-04 22:26:00,75.6,72.8,30.21,SSW,202,0.0,0.0,91,0.00,,BKN250,0.00,VWS V14.01,2013-10-05 03:26:00,
2013-10-04 22:30:00,75.7,72.9,30.21,SSW,202,0.0,0.0,91,0.00,,BKN220,0.00,VWS V14.01,2013-10-05 03:30:00,
2013-10-04 22:31:00,75.6,73.1,30.21,SSW,202,0.0,0.0,92,0.00,,BKN250,0.00,VWS V14.01,2013-10-05 03:31:00,
2013-10-04 22:35:00,75.6,72.8,30.21,SSW,202,0.0,0.0,91,0.00,,BKN220,0.00,VWS V14.01,2013-10-05 03:35:00,
2013-10-04 22:36:00,75.6,73.1,30.21,SSW,202,0.0,0.0,92,0.00,,BKN250,0.00,VWS V14.01,2013-10-05 03:36:00,
2013-10-04 22:40:00,75.6,72.8,30.21,SSW,202,0.0,0.0,91,0.00,,BKN220,0.00,VWS V14.01,2013-10-05 03:40:00,
2013-10-04 22:41:00,75.4,72.9,30.21,SSW,202,0.0,0.0,92,0.00,,BKN250,0.00,VWS V14.01,2013-10-05 03:41:00,
2013-10-04 22:45:00,75.6,73.1,30.21,SSW,202,0.0,0.0,92,0.00,,BKN220,0.00,VWS V14.01,2013-10-05 03:45:00,
2013-10-04 22:46:00,75.4,72.9,30.21,SSW,202,0.0,0.0,92,0.00,,BKN250,0.00,VWS V14.01,2013-10-05 03:46:00,
2013-10-04 22:50:00,75.4,72.9,30.21,SSW,202,0.0,0.0,92,0.00,,BKN220,0.00,VWS V14.01,2013-10-05 03:50:00,
2013-10-04 22:51:00,75.4,72.9,30.24,SSW,202,0.0,0.0,92,0.00,,BKN250,0.00,VWS V14.01,2013-10-05 03:51:00,
2013-10-04 22:55:00,75.4,72.9,30.21,SSW,202,0.0,0.0,92,0.00,,BKN220,0.00,VWS V14.01,2013-10-05 03:55:00,
2013-10-04 22:56:00,75.2,72.7,30.24,SSW,202,0.0,0.0,92,0.00,,BKN250,0.00,VWS V14.01,2013-10-05 03:56:00,
2013-10-04 23:00:00,75.4,72.9,30.24,SSW,202,0.0,0.0,92,0.00,,BKN220,0.00,VWS V14.01,2013-10-05 04:00:00,
2013-10-04 23:01:00,75.2,72.7,30.24,SSW,202,0.0,0.0,92,0.00,,BKN250,0.00,VWS V14.01,2013-10-05 04:01:00,
2013-10-04 23:02:00,75.2,72.7,30.24,SSW,202,0.0,0.0,92,0.00,,BKN250,0.00,VWS V14.01,2013-10-05 04:02:00,
2013-10-04 23:03:00,75.2,72.7,30.24,SSW,202,0.0,0.0,92,0.00,,BKN250,0.00,VWS V14.01,2013-10-05 04:03:00,
2013-10-04 23:05:00,75.0,72.5,30.24,SSW,202,0.0,0.0,92,0.00,,BKN250,0.00,VWS V14.01,2013-10-05 04:05:00,
2013-10-04 23:06:00,75.0,72.5,30.24,SSW,202,0.0,0.0,92,0.00,,BKN250,0.00,VWS V14.01,2013-10-05 04:06:00,
2013-10-04 23:10:00,75.2,72.7,30.24,SSW,202,0.0,0.0,92,0.00,,BKN220,0.00,VWS V14.01,2013-10-05 04:10:00,
2013-10-04 23:11:00,75.0,72.5,30.24,SSW,202,0.0,0.0,92,0.00,,BKN250,0.00,VWS V14.01,2013-10-05 04:11:00,
2013-10-04 23:15:00,75.0,72.5,30.24,SSW,202,0.0,0.0,92,0.00,,BKN220,0.00,VWS V14.01,2013-10-05 04:15:00,
2013-10-04 23:16:00,75.0,72.5,30.24,SSW,202,0.0,0.0,92,0.00,,BKN250,0.00,VWS V14.01,2013-10-05 04:16:00,
2013-10-04 23:20:00,75.0,72.5,30.24,SSW,202,0.0,0.0,92,0.00,,BKN220,0.00,VWS V14.01,2013-10-05 04:20:00,
2013-10-04 23:21:00,74.8,72.7,30.21,SSW,202,0.0,0.0,93,0.00,,BKN250,0.00,VWS V14.01,2013-10-05 04:21:00,
2013-10-04 23:25:00,75.0,72.9,30.24,SSW,202,0.0,0.0,93,0.00,,BKN220,0.00,VWS V14.01,2013-10-05 04:25:00,
2013-10-04 23:26:00,74.8,72.7,30.21,SSW,202,0.0,0.0,93,0.00,,BKN250,0.00,VWS V14.01,2013-10-05 04:26:00,
2013-10-04 23:30:00,74.8,72.7,30.21,SSW,202,0.0,0.0,93,0.00,,BKN220,0.00,VWS V14.01,2013-10-05 04:30:00,
2013-10-04 23:31:00,74.7,72.5,30.21,SSW,202,0.0,0.0,93,0.00,,BKN250,0.00,VWS V14.01,2013-10-05 04:31:00,
2013-10-04 23:35:00,74.8,72.7,30.21,SSW,202,0.0,0.0,93,0.00,,BKN220,0.00,VWS V14.01,2013-10-05 04:35:00,
2013-10-04 23:36:00,74.7,72.5,30.18,SSW,202,0.0,0.0,93,0.00,,BKN250,0.00,VWS V14.01,2013-10-05 04:36:00,
2013-10-04 23:40:00,74.7,72.5,30.21,SSW,202,0.0,0.0,93,0.00,,BKN220,0.00,VWS V14.01,2013-10-05 04:40:00,
2013-10-04 23:41:00,74.7,72.5,30.18,SSW,202,0.0,0.0,93,0.00,,BKN250,0.00,VWS V14.01,2013-10-05 04:41:00,
2013-10-04 23:45:00,74.7,72.5,30.18,SSW,202,0.0,0.0,93,0.00,,BKN220,0.00,VWS V14.01,2013-10-05 04:45:00,
2013-10-04 23:46:00,74.7,72.5,30.18,SSW,202,0.0,0.0,93,0.00,,BKN250,0.00,VWS V14.01,2013-10-05 04:46:00,
2013-10-04 23:50:00,74.7,72.5,30.18,SSW,202,0.0,0.0,93,0.00,,BKN220,0.00,VWS V14.01,2013-10-05 04:50:00,
2013-10-04 23:51:00,74.5,72.3,30.21,SSW,202,0.0,0.0,93,0.00,,BKN250,0.00,VWS V14.01,2013-10-05 04:51:00,
2013-10-04 23:55:00,74.7,72.5,30.18,SSW,202,0.0,0.0,93,0.00,,BKN220,0.00,VWS V14.01,2013-10-05 04:55:00,
2013-10-04 23:56:00,74.5,72.3,30.21,SSW,202,0.0,0.0,93,0.00,,BKN250,0.00,VWS V14.01,2013-10-05 04:56:00,